This is the latest recevied weather packets stored in our database for station/object IW1CGW-23. If no packets are shown the sender has not sent any weather packets the latest 10 day(s).
| Time | Temp. | Humidity | Pressure | Rain* | Wind** | Luminosity | Snow |
|---|---|---|---|---|---|---|---|
| 1777830527 | 16.67° C | 74% | 1018.5 hPa | - | - | - | - |
| 1777827396 | 17.22° C | 75% | 1018.9 hPa | - | - | - | - |
| 1777825831 | 17.22° C | 74% | 1019 hPa | - | - | - | - |
| 1777821919 | 17.78° C | 73% | 1019.3 hPa | - | - | - | - |
| 1777821132 | 17.78° C | 73% | 1019.3 hPa | - | - | - | - |
| 1777820348 | 17.78° C | 73% | 1019.4 hPa | - | - | - | - |
| 1777817215 | 17.78° C | 72% | 1020 hPa | - | - | - | - |
| 1777815647 | 18.33° C | 71% | 1020.2 hPa | - | - | - | - |
| 1777814869 | 17.78° C | 72% | 1020.5 hPa | - | - | - | - |
| 1777814085 | 18.33° C | 71% | 1020.5 hPa | - | - | - | - |
| 1777813297 | 18.33° C | 70% | 1020.6 hPa | - | - | - | - |
| 1777811730 | 18.33° C | 70% | 1020.7 hPa | - | - | - | - |
| 1777810162 | 18.89° C | 68% | 1021 hPa | - | - | - | - |
| 1777809378 | 18.33° C | 69% | 1021.1 hPa | - | - | - | - |
| 1777807812 | 19.44° C | 68% | 1020.9 hPa | - | - | - | - |
| 1777806238 | 20° C | 66% | 1021.1 hPa | - | - | - | - |
| 1777805457 | 19.44° C | 67% | 1021.3 hPa | - | - | - | - |
| 1777804666 | 20° C | 66% | 1021.5 hPa | - | - | - | - |
| 1777803095 | 19.44° C | 66% | 1021.6 hPa | - | - | - | - |
| 1777798383 | 21.11° C | 62% | 1021.4 hPa | - | - | - | - |
| 1777797597 | 21.11° C | 62% | 1021.4 hPa | - | - | - | - |
| 1777796812 | 19.44° C | 63% | 1021.4 hPa | - | - | - | - |
| 1777794462 | 18.89° C | 60% | 1021.1 hPa | - | - | - | - |
| 1777791322 | 17.22° C | 57% | 1020.6 hPa | - | - | - | - |
| 1777790540 | 16.67° C | 57% | 1021.1 hPa | - | - | - | - |
* Rain since midnight (hover to see other rain measurements)
** Current wind speed in m/s (hover to see current wind gust speed)